Date,TemperatureHighF,TemperatureAvgF,TemperatureLowF,DewpointHighF,DewpointAvgF,DewpointLowF,HumidityHigh,HumidityAvg,HumidityLow,PressureMaxIn,PressureMinIn,WindSpeedMaxMPH,WindSpeedAvgMPH,GustSpeedMaxMPH,PrecipitationSumIn
2013-1-1,47.1,43.7,40.3,42.0,34.5,26.0,96,71,52,30.10,29.91,5,1,10,0.20
2013-1-2,44.3,40.2,36.4,42.0,33.8,26.0,96,79,61,30.18,29.93,6,1,9,0.06
2013-1-3,41.7,36.1,33.0,32.0,27.1,21.0,80,70,60,30.26,30.16,4,0,5,0.00
2013-1-4,47.2,35.3,28.7,22.0,20.1,17.0,72,56,31,30.32,30.20,6,2,12,0.00
2013-1-5,50.0,39.9,30.8,25.0,21.8,20.0,66,50,31,30.39,30.23,6,1,10,0.00
2013-1-6,51.1,42.2,35.5,36.0,31.7,25.0,87,67,49,30.22,30.04,4,1,12,0.02
2013-1-7,49.8,39.9,32.5,32.0,27.5,26.0,76,62,43,30.44,30.18,6,1,7,0.00
2013-1-8,52.3,40.2,27.1,40.0,32.8,24.0,88,76,57,30.47,30.37,3,0,7,0.00
2013-1-9,62.2,51.4,40.8,52.0,45.5,38.0,92,80,68,30.43,30.34,6,1,13,0.00
2013-1-10,57.5,51.3,45.4,48.0,35.9,29.0,87,58,35,30.53,30.41,4,0,7,0.00
2013-1-11,48.8,42.1,38.8,48.0,38.9,33.0,98,89,60,30.41,30.14,5,0,7,0.04
2013-1-12,70.4,57.7,47.7,60.0,54.4,47.0,98,89,70,30.16,30.06,3,0,5,0.00
2013-1-13,70.1,61.1,53.3,61.0,57.1,53.0,99,87,69,30.09,29.99,7,2,12,0.00
2013-1-14,62.9,57.1,47.4,60.0,55.8,46.0,98,95,86,30.20,30.02,5,1,8,0.95
2013-1-15,47.1,40.8,37.5,46.0,40.0,37.0,97,97,96,30.25,30.10,4,1,8,0.89
2013-1-16,47.9,41.6,36.9,47.0,41.0,36.0,98,98,97,30.10,29.96,3,0,5,0.52
2013-1-17,47.7,39.5,32.2,47.0,38.7,31.0,98,96,93,30.17,29.96,6,1,11,1.18
2013-1-18,41.6,33.8,28.9,32.0,27.4,24.0,97,78,52,30.53,30.17,3,0,6,0.23
2013-1-19,51.7,38.5,29.0,30.0,25.9,24.0,83,63,38,30.49,30.15,7,2,13,0.03
2013-1-20,56.2,45.0,35.2,33.0,28.4,25.0,72,54,32,30.12,29.99,10,2,18,0.00
2013-1-21,54.9,41.0,30.4,31.0,22.3,8.0,80,51,27,30.07,29.87,16,3,20,0.00
2013-1-22,35.0,26.7,20.8,9.0,-0.6,-8.0,43,31,18,30.30,29.98,10,3,14,0.00
2013-1-23,35.4,26.8,16.9,16.0,7.3,-3.0,55,44,25,30.37,30.06,7,1,13,0.00
2013-1-24,34.3,28.3,20.2,21.0,8.6,0.0,64,45,30,30.53,29.99,9,2,16,0.00
2013-1-25,25.1,20.9,18.5,23.0,13.3,4.0,92,73,49,30.53,30.11,5,1,7,0.00
2013-1-26,36.4,30.4,24.0,28.0,24.0,21.0,92,77,63,30.44,30.11,3,1,5,0.01
2013-1-27,36.1,30.5,22.7,27.0,23.1,18.0,83,74,66,30.61,30.43,4,0,5,0.00
2013-1-28,52.8,41.3,32.2,42.0,35.6,27.0,93,81,63,30.48,30.20,8,2,15,0.00
2013-1-29,69.9,62.2,45.2,55.0,50.3,41.0,87,66,46,30.20,30.01,6,1,8,0.00
2013-1-30,69.2,63.6,52.9,62.0,59.1,51.0,95,85,70,30.01,29.33,19,3,23,0.45
2013-1-31,52.9,40.4,32.3,51.0,24.9,16.0,94,56,38,29.96,29.37,15,6,22,0.00
2013-2-1,35.1,28.2,20.2,29.0,9.2,1.0,86,46,29,30.39,29.84,19,4,19,0.00
2013-2-2,36.1,28.1,18.0,25.0,11.6,6.0,76,52,37,30.40,30.04,8,1,11,0.00
2013-2-3,44.0,36.5,31.8,28.0,24.3,19.0,83,63,44,30.04,29.85,14,2,17,0.00
2013-2-4,43.0,35.0,27.5,26.0,19.5,16.0,64,54,41,30.15,29.97,6,1,9,0.00
2013-2-5,57.3,44.9,36.0,36.0,29.9,25.0,68,57,39,29.98,29.87,8,2,13,0.00
2013-2-6,57.1,46.3,38.0,33.0,28.1,24.0,76,51,30,30.29,29.95,4,1,8,0.00
2013-2-7,40.1,36.6,33.3,34.0,30.1,25.0,94,78,58,30.36,30.09,5,1,8,0.27
2013-2-8,55.2,41.1,33.1,44.0,33.1,24.0,96,76,43,30.08,29.84,9,3,18,0.14
2013-2-9,50.8,39.5,32.0,24.0,16.6,11.0,60,42,21,30.35,30.06,9,2,12,0.00
2013-2-10,50.4,38.8,29.4,36.0,20.8,15.0,89,51,30,30.48,30.21,5,1,8,0.07
2013-2-11,53.7,46.0,37.4,51.0,43.0,34.0,98,90,53,30.20,29.91,7,2,13,0.11
2013-2-12,57.6,49.9,43.1,38.0,25.5,21.0,74,40,25,30.07,29.90,9,2,13,0.03
2013-2-13,45.2,42.3,37.1,43.0,39.5,32.0,97,90,75,29.94,29.62,11,1,12,0.23
2013-2-14,53.1,41.9,32.7,32.0,28.3,25.0,84,60,37,30.06,29.84,6,1,10,0.00
2013-2-15,59.0,44.7,31.6,38.0,31.6,28.0,87,63,34,30.08,29.90,6,2,12,0.02
2013-2-16,39.3,35.2,27.9,33.0,22.7,12.0,86,61,44,29.99,29.84,6,1,8,0.00
2013-2-17,33.2,27.1,21.5,16.0,7.4,2.0,70,44,30,30.28,29.93,9,3,22,0.00
2013-2-18,52.3,36.5,21.6,24.0,15.9,7.0,66,45,28,30.40,30.18,6,1,10,0.00
2013-2-19,47.0,40.1,35.4,41.0,28.3,11.0,95,67,27,30.19,29.84,10,3,18,0.07
2013-2-20,49.3,39.0,32.1,15.0,8.5,1.0,42,30,14,30.16,29.98,10,3,13,0.00
2013-2-21,54.6,39.7,28.5,19.0,14.3,12.0,54,38,19,30.27,30.11,4,1,11,0.00
2013-2-22,40.8,34.3,29.8,32.0,27.9,19.0,93,79,42,30.34,30.15,3,1,6,0.08
2013-2-23,47.8,39.6,33.4,43.0,36.9,32.0,95,90,82,30.16,29.82,3,0,4,0.09
2013-2-24,59.0,47.1,38.5,41.0,29.7,20.0,95,57,26,30.05,29.80,9,2,12,0.00
2013-2-25,41.1,36.2,30.8,23.0,22.2,21.0,72,58,48,30.22,30.05,4,0,8,0.00
2013-2-26,37.9,34.9,31.6,37.0,30.4,21.0,97,85,58,30.18,29.62,5,1,10,0.80
2013-2-27,55.3,44.7,37.1,40.0,35.8,31.0,97,74,45,29.78,29.63,10,2,15,0.05
2013-2-28,44.1,40.0,36.9,35.0,27.4,22.0,77,62,44,29.85,29.68,11,3,17,0.00
2013-3-1,41.4,38.7,36.2,27.0,25.8,23.0,67,60,53,29.92,29.83,7,2,10,0.00
2013-3-2,40.4,35.7,30.9,24.0,21.2,16.0,65,56,47,29.93,29.83,7,2,14,0.00
2013-3-3,36.5,31.6,27.4,20.0,16.8,13.0,63,55,46,29.99,29.90,12,3,15,0.00
2013-3-4,50.2,36.9,26.5,15.0,11.6,7.0,58,38,17,30.12,29.99,7,2,11,0.00
2013-3-5,50.3,41.2,35.2,41.0,28.8,15.0,95,65,39,30.07,29.60,4,1,6,0.58
2013-3-6,43.6,37.1,32.2,36.0,28.5,25.0,96,72,54,30.08,29.59,10,3,20,0.13
2013-3-7,45.2,38.6,32.0,29.0,26.3,23.0,72,62,48,30.26,30.07,9,2,14,0.00
2013-3-8,53.2,41.9,32.5,26.0,24.0,21.0,72,52,31,30.32,30.20,7,2,11,0.00
2013-3-9,62.1,46.4,30.3,30.0,26.9,24.0,78,50,28,30.36,30.23,5,1,8,0.00
2013-3-10,66.2,51.2,35.3,36.0,30.2,26.0,74,47,28,30.31,30.17,5,1,9,0.00
2013-3-11,61.8,52.9,42.9,52.0,37.8,24.0,83,58,36,30.19,29.87,7,1,14,0.01
2013-3-12,60.3,54.1,42.3,56.0,43.4,28.0,97,71,35,29.96,29.70,8,3,10,0.66
2013-3-13,48.3,40.5,32.5,30.0,24.6,16.0,75,54,40,30.16,29.96,13,3,16,0.00
2013-3-14,48.9,37.8,29.1,17.0,14.8,12.0,57,41,23,30.24,30.14,10,4,16,0.00
2013-3-15,61.2,47.1,32.8,35.0,25.0,15.0,54,43,34,30.18,29.87,11,2,15,0.00
2013-3-16,76.7,57.9,44.1,48.0,40.3,35.0,71,54,35,29.87,29.59,11,2,15,0.00
2013-3-29,49.1,47.8,46.1,26.0,24.8,24.0,46,41,38,30.21,30.20,0,0,0,0.00
2013-3-30,48.0,41.7,38.3,31.0,27.6,26.0,67,58,48,30.25,30.19,2,0,4,0.00
2013-3-31,60.8,59.0,56.4,52.0,50.4,49.0,79,73,69,29.83,29.79,6,3,13,0.22
2013-4-1,63.8,54.9,44.9,49.0,40.2,29.0,87,60,38,29.98,29.82,10,3,18,0.00
2013-4-2,56.4,45.5,34.1,29.0,20.2,11.0,70,41,18,30.17,29.99,5,2,14,0.00
2013-4-3,56.1,45.3,33.7,18.0,14.2,10.0,50,30,17,30.33,30.16,7,1,11,0.00
2013-4-4,44.0,37.1,32.8,32.0,21.7,10.0,95,59,25,30.39,30.01,5,1,8,0.79
2013-4-5,62.6,48.0,33.4,44.0,34.7,30.0,97,66,32,30.05,29.93,7,2,13,0.28
2013-4-6,62.9,51.8,40.0,31.0,29.2,27.0,68,44,28,30.27,30.05,8,1,8,0.00
2013-4-7,69.5,57.1,41.4,45.0,39.3,29.0,81,54,38,30.24,30.07,8,2,16,0.00
2013-4-8,77.2,65.3,52.3,52.0,48.4,43.0,82,56,37,30.12,30.00,7,2,14,0.00
2013-4-9,83.4,72.0,57.8,55.0,51.8,50.0,75,51,33,30.14,30.01,7,1,12,0.00
2013-4-10,86.5,75.7,64.3,59.0,55.3,52.0,70,51,32,30.05,29.88,8,2,13,0.00
2013-4-11,79.6,71.6,62.6,63.0,57.8,55.0,82,63,44,29.91,29.71,7,2,13,0.00
2013-4-12,79.6,68.7,60.5,64.0,55.4,37.0,97,67,30,29.74,29.57,10,3,19,0.86
2013-4-13,73.9,62.6,49.2,40.0,34.4,27.0,61,37,20,29.99,29.75,9,2,11,0.00
2013-4-14,78.6,64.9,48.3,45.0,36.3,29.0,63,37,21,30.09,29.98,6,1,10,0.00
2013-4-15,66.0,57.9,52.4,56.0,52.9,46.0,95,84,48,30.23,30.02,3,0,14,0.15
2013-4-16,77.0,65.3,57.5,60.0,57.3,54.0,95,77,52,30.30,30.15,5,1,9,0.00
2013-4-17,77.6,68.4,59.9,63.0,59.0,56.0,88,73,55,30.20,30.09,4,1,5,0.00
2013-4-18,76.9,69.0,61.5,61.0,58.7,55.0,92,71,48,30.14,29.97,5,1,13,0.00
2013-4-19,74.6,66.0,55.3,66.0,60.6,44.0,94,83,64,29.97,29.64,8,3,23,0.24
2013-4-20,61.3,52.0,43.1,44.0,30.8,26.0,68,46,26,30.29,29.83,8,2,13,0.00
2013-4-21,59.3,49.0,41.3,36.0,31.9,27.0,70,53,39,30.52,30.29,6,1,10,0.00
2013-4-22,60.7,49.2,35.7,38.0,31.4,21.0,89,55,22,30.49,30.29,8,1,9,0.00
2013-4-23,67.0,55.9,46.0,49.0,43.6,37.0,82,65,47,30.32,30.10,4,0,7,0.00
2013-4-24,71.7,61.9,51.2,56.0,52.7,49.0,93,73,54,30.12,29.92,10,2,18,0.00
2013-4-25,68.1,56.0,44.0,52.0,33.5,24.0,75,47,20,30.29,30.03,5,1,8,0.00
2013-4-26,67.7,56.0,41.6,40.0,33.7,30.0,72,45,27,30.45,30.30,5,1,8,0.00
2013-4-27,66.6,57.9,52.0,53.0,45.7,38.0,91,65,49,30.36,30.25,2,0,6,0.02
2013-4-28,54.6,52.8,50.8,53.0,51.6,50.0,98,95,92,30.25,30.06,3,0,7,0.49
2013-4-29,64.5,56.1,50.7,58.0,53.8,50.0,98,92,77,30.08,29.98,2,0,5,0.24
2013-4-30,66.0,59.1,53.9,57.0,55.0,53.0,96,86,70,30.20,30.02,2,0,6,0.00
2013-5-1,66.9,59.2,54.4,55.0,52.6,49.0,95,80,59,30.34,30.20,6,1,8,0.00
2013-5-2,62.1,56.8,52.7,55.0,50.5,43.0,93,80,62,30.35,30.27,3,0,6,0.00
2013-5-3,66.1,56.3,47.2,51.0,47.8,42.0,95,75,53,30.30,30.18,5,0,8,0.00
2013-5-4,60.2,51.7,46.5,49.0,44.5,41.0,85,77,60,30.23,30.12,4,1,12,0.00
2013-5-5,54.1,51.0,46.5,52.0,45.4,35.0,95,81,65,30.14,30.01,4,1,9,0.01
2013-5-6,59.4,54.9,51.8,59.0,54.0,51.0,98,96,92,30.03,29.84,5,1,10,0.50
2013-5-7,65.8,56.5,51.9,57.0,54.3,51.0,99,92,59,29.95,29.85,4,0,10,0.14
2013-5-8,59.2,53.2,49.3,58.0,52.6,49.0,99,98,94,30.01,29.92,1,0,4,0.23
2013-5-9,78.6,63.4,48.4,60.0,53.7,48.0,99,75,39,30.07,29.98,4,1,7,0.01
2013-5-10,80.7,69.6,56.1,60.0,57.0,53.0,91,66,45,30.05,29.90,6,1,12,0.00
2013-5-11,76.6,69.6,64.4,62.0,60.1,57.0,89,73,52,29.91,29.75,9,1,9,0.00
2013-5-12,65.4,59.4,48.8,61.0,40.9,31.0,90,53,31,30.04,29.79,7,1,10,0.00
2013-5-13,62.2,51.7,40.7,38.0,32.5,27.0,85,52,27,30.19,30.04,4,0,9,0.00
2013-5-14,68.4,55.0,38.9,44.0,38.8,34.0,88,58,36,30.25,30.03,7,1,11,0.00
2013-5-15,87.1,69.1,53.2,64.0,54.5,44.0,77,61,34,30.04,29.85,3,1,10,0.00
2013-5-16,81.6,73.3,63.5,61.0,57.7,54.0,74,59,42,29.97,29.87,4,0,7,0.00
2013-5-17,81.5,71.9,62.6,65.0,60.2,55.0,84,67,45,30.08,29.95,2,0,6,0.00
2013-5-18,67.6,65.2,62.0,65.0,62.7,60.0,97,91,82,30.15,30.06,2,0,5,0.05
2013-5-19,69.7,65.8,62.0,69.0,65.1,61.0,99,97,92,30.12,30.03,6,0,6,0.55
2013-5-20,76.0,67.8,65.0,69.0,65.9,63.0,99,93,76,30.09,30.00,2,0,8,0.05
2013-5-21,84.7,73.4,65.1,71.0,67.4,65.0,99,83,57,30.03,29.90,4,1,7,0.00
2013-5-22,81.5,71.3,64.2,70.0,66.2,63.0,97,84,63,29.98,29.85,8,1,13,0.48
2013-5-23,74.7,65.7,61.9,68.0,64.0,61.0,98,94,78,29.92,29.78,4,0,7,0.37
2013-5-24,63.1,59.2,51.0,61.0,48.0,36.0,98,70,39,30.19,29.82,5,1,10,0.01
2013-5-25,69.6,57.0,45.5,40.0,34.4,26.0,80,46,25,30.27,30.15,4,1,9,0.00
2013-5-26,73.8,61.8,51.1,47.0,41.8,37.0,75,50,30,30.26,30.15,4,0,7,0.00
2013-5-27,77.0,64.5,51.5,58.0,51.0,44.0,82,63,49,30.28,30.13,3,0,8,0.00
2013-5-28,83.2,71.8,61.6,67.0,61.7,55.0,92,72,51,30.20,30.10,6,1,10,0.00
2013-5-29,84.3,74.4,65.2,65.0,63.0,61.0,86,69,49,30.20,30.11,5,1,10,0.00
2013-5-30,83.4,73.9,64.3,66.0,63.3,61.0,92,71,48,30.23,30.14,6,1,9,0.00
2013-5-31,83.9,74.4,65.2,68.0,63.9,61.0,89,71,53,30.18,30.06,5,1,8,0.00
2013-6-1,85.6,76.0,67.1,69.0,65.0,62.0,94,70,46,30.08,29.97,6,1,11,0.00
2013-6-2,79.3,70.9,67.0,70.0,66.2,63.0,98,85,69,29.98,29.89,5,1,12,0.48
2013-6-3,81.1,70.7,66.4,69.0,66.0,63.0,98,86,60,29.95,29.83,3,0,5,0.29
2013-6-4,73.5,67.5,60.7,65.0,61.8,58.0,91,82,71,30.09,29.94,2,0,7,0.00
2013-6-5,72.8,66.1,60.8,64.0,61.7,58.0,94,86,69,30.13,30.01,3,0,6,0.00
2013-6-6,67.4,63.9,61.0,67.0,63.2,60.0,99,97,90,30.02,29.81,2,0,3,0.28
2013-6-7,72.0,67.8,65.1,70.0,67.0,64.0,99,97,92,29.83,29.61,2,0,4,0.10
2013-6-8,80.3,69.7,60.9,66.0,62.3,59.0,97,79,54,30.08,29.80,3,0,5,0.11
2013-6-9,84.5,73.0,64.6,71.0,66.9,63.0,97,83,55,30.14,30.02,4,0,12,0.44
2013-6-10,80.0,71.3,67.9,73.0,69.2,67.0,99,93,75,30.07,29.83,11,1,12,0.55
2013-6-11,81.7,73.3,65.0,67.0,64.0,62.0,97,75,52,29.94,29.86,8,1,8,0.01
2013-6-12,89.2,77.8,64.9,76.0,69.1,62.0,92,75,54,29.95,29.83,4,0,7,0.00
2013-6-13,90.8,76.9,69.0,74.0,68.7,58.0,93,77,50,29.83,29.57,5,1,16,0.24
2013-6-14,75.3,68.1,61.6,60.0,56.8,55.0,83,68,52,30.01,29.73,7,0,7,0.00
2013-6-15,80.4,70.4,57.6,62.0,58.7,55.0,92,68,46,30.12,30.01,3,0,7,0.00
2013-6-16,83.5,74.7,65.6,69.0,64.9,61.0,85,72,58,30.07,29.96,4,1,8,0.00
2013-6-17,81.8,75.1,69.1,71.0,68.3,66.0,93,79,65,30.00,29.89,3,0,7,0.00
2013-6-18,77.1,70.6,66.0,71.0,68.4,65.0,98,92,80,29.93,29.77,2,0,7,0.43
2013-6-19,78.5,69.8,61.6,68.0,64.5,61.0,97,84,64,30.12,29.89,3,0,7,0.00
2013-6-20,77.6,69.7,65.0,67.0,64.7,63.0,95,84,66,30.25,30.13,7,0,7,0.00
2013-6-21,80.9,70.0,59.7,64.0,59.9,55.0,92,72,54,30.27,30.19,0,0,1,0.00
2013-6-22,81.0,70.9,62.8,70.0,64.8,57.0,96,81,62,30.24,30.11,0,0,0,0.00
2013-6-23,86.1,75.7,67.2,70.0,67.6,64.0,97,78,50,30.19,30.08,3,0,7,0.00
2013-6-24,85.8,75.9,68.1,72.0,69.5,67.0,97,81,61,30.17,30.04,4,1,9,0.00
2013-6-25,86.0,76.5,68.7,73.0,69.3,66.0,95,80,52,30.08,29.96,3,0,6,0.09
2013-6-26,88.0,73.5,67.4,74.0,69.4,67.0,97,87,61,29.98,29.86,4,0,10,0.71
2013-6-27,82.8,73.9,66.9,73.0,69.3,66.0,98,86,70,29.91,29.69,4,1,8,0.02
2013-6-28,90.1,77.6,70.6,71.0,68.6,65.0,89,75,45,29.72,29.53,5,1,12,0.08
2013-6-29,84.2,75.4,67.1,70.0,67.4,65.0,95,77,56,29.69,29.56,5,1,7,0.00
2013-6-30,82.9,73.7,69.2,72.0,68.6,63.0,96,84,67,29.83,29.67,5,0,10,0.01
2013-7-1,81.1,73.0,67.9,71.0,69.1,67.0,98,88,65,29.96,29.81,4,0,8,0.07
2013-7-2,75.5,71.8,70.0,72.0,69.8,69.0,97,93,86,30.16,29.95,3,1,12,0.19
2013-7-3,75.0,72.1,69.7,73.0,71.3,69.0,99,97,93,30.22,30.11,3,0,8,0.56
2013-7-4,83.2,74.1,70.4,75.0,71.9,70.0,99,93,70,30.24,30.16,5,1,9,0.46
2013-7-5,84.1,75.0,70.0,75.0,71.6,69.0,98,89,66,30.24,30.15,4,1,12,0.07
2013-7-6,84.3,75.5,69.8,73.0,70.4,69.0,98,86,63,30.23,30.10,6,0,8,0.17
2013-7-7,82.6,73.1,68.8,76.0,70.9,67.0,98,93,72,30.16,30.05,9,1,10,0.38
2013-7-8,83.4,74.3,68.0,72.0,69.3,68.0,99,86,62,30.16,30.07,4,0,6,1.08
2013-7-9,86.4,78.1,70.9,75.0,72.2,70.0,96,83,63,30.13,30.02,4,0,6,0.00
2013-7-10,84.2,76.4,70.0,76.0,72.2,69.0,96,87,70,30.05,29.90,6,0,12,0.00
2013-7-11,80.5,73.5,69.9,75.0,71.1,69.0,98,92,77,29.93,29.85,2,0,5,0.09
2013-7-12,74.5,70.3,67.4,69.0,66.8,65.0,97,89,75,30.04,29.86,2,0,7,0.00
2013-7-13,75.7,70.8,67.1,72.0,68.7,65.0,98,93,85,30.17,30.03,1,0,5,0.03
2013-7-14,86.0,76.3,70.4,73.0,71.0,70.0,98,84,62,30.30,30.17,4,0,9,0.03
2013-7-15,87.3,77.5,69.9,73.0,70.7,69.0,98,81,57,30.32,30.23,4,0,5,0.00
2013-7-16,92.9,80.1,68.7,74.0,70.3,67.0,95,74,45,30.27,30.17,2,0,7,0.00
2013-7-17,90.6,78.9,73.5,77.0,72.8,70.0,97,82,57,30.21,30.10,4,0,7,0.39
2013-7-18,90.0,80.3,71.3,75.0,72.4,68.0,97,79,50,30.14,30.01,3,0,5,0.01
2013-7-19,87.6,79.0,73.9,75.0,73.6,72.0,94,84,64,30.06,29.99,6,1,7,0.00
2013-7-24,85.8,80.8,74.8,71.0,67.2,63.0,83,64,49,29.84,29.74,2,0,6,0.00
2013-7-25,78.5,71.0,63.6,69.0,64.2,61.0,97,80,60,30.03,29.85,3,0,8,0.16
2013-7-26,80.3,72.2,65.1,68.0,65.1,62.0,93,79,62,30.10,30.00,3,0,7,0.00
2013-7-27,70.6,69.0,67.8,69.0,67.5,65.0,98,94,88,30.03,29.91,3,0,4,0.44
2013-7-28,82.4,72.0,66.6,71.0,68.2,66.0,98,89,63,29.98,29.89,3,0,7,0.17
2013-7-29,80.5,71.0,62.7,67.0,62.0,56.0,98,76,48,30.17,29.98,2,0,6,0.00
2013-7-30,80.3,69.9,59.4,67.0,61.5,57.0,93,76,53,30.23,30.13,3,0,5,0.00
2013-7-31,74.9,70.7,67.1,69.0,67.1,66.0,97,88,76,30.14,29.98,2,0,5,0.01
2013-8-1,82.5,73.3,66.1,72.0,68.1,66.0,99,85,64,29.99,29.84,2,0,5,0.17
2013-8-2,82.8,74.2,65.2,69.0,65.7,63.0,93,76,55,30.01,29.91,3,0,6,0.00
2013-8-3,85.8,76.0,67.6,73.0,68.3,64.0,93,78,49,30.00,29.89,3,0,8,0.00
2013-8-4,82.9,75.1,68.9,71.0,65.3,60.0,96,74,48,30.02,29.90,2,0,6,0.01
2013-8-5,77.4,70.2,63.4,68.0,62.5,58.0,95,77,63,30.09,29.98,4,0,6,0.07
2013-8-6,77.9,71.5,65.2,70.0,67.5,63.0,97,87,76,30.04,29.96,4,1,10,0.01
2013-8-7,79.2,72.9,68.2,72.0,69.2,66.0,94,88,76,30.07,30.00,5,1,8,0.00
2013-8-8,81.7,74.3,70.4,75.0,71.0,68.0,97,89,77,30.05,29.98,5,0,9,0.08
2013-8-9,86.9,77.3,72.2,76.0,73.0,71.0,97,87,67,30.01,29.93,4,1,7,0.04
2013-8-10,86.3,76.5,71.8,76.0,72.2,70.0,95,87,68,30.06,30.00,4,0,7,0.05
2013-8-11,84.2,74.6,69.8,76.0,72.1,69.0,99,92,71,30.10,30.00,2,0,6,0.27
2013-8-12,87.7,77.2,70.3,74.0,71.2,69.0,99,83,56,30.04,29.92,5,0,7,0.50
2013-8-13,82.7,72.9,67.3,74.0,70.3,67.0,98,92,75,29.93,29.78,2,0,6,0.52
2013-8-14,74.5,69.0,63.3,67.0,59.6,54.0,89,73,51,30.09,29.84,4,0,7,0.00
2013-8-15,73.1,64.7,56.8,59.0,55.7,53.0,93,74,49,30.17,30.09,3,0,7,0.00
2013-8-16,69.9,62.9,54.8,61.0,57.6,53.0,94,83,68,30.19,30.11,3,0,5,0.00
2013-8-17,64.5,61.0,57.4,63.0,59.2,56.0,98,94,83,30.23,30.16,3,0,5,0.47
2013-8-18,70.6,65.5,62.5,66.0,64.0,62.0,99,94,83,30.23,30.14,2,0,5,0.57
2013-8-19,73.2,66.8,63.2,70.0,65.7,63.0,99,96,86,30.20,30.08,4,0,5,0.43
2013-8-20,80.9,71.3,64.4,72.0,68.1,64.0,99,90,68,30.18,30.10,3,0,6,0.00
2013-8-21,81.4,73.8,67.0,74.0,70.6,67.0,98,90,75,30.21,30.08,3,0,5,0.01
2013-8-22,85.1,74.4,65.3,73.0,68.3,64.0,96,82,60,30.12,29.98,2,0,9,0.00
2013-8-23,81.7,70.9,62.5,72.0,67.6,62.0,98,90,68,30.11,29.92,2,0,13,0.87
2013-8-24,80.1,68.5,59.5,63.0,59.9,57.0,98,77,46,30.31,30.11,3,0,8,0.00
2013-8-25,76.9,67.4,58.3,65.0,60.5,57.0,96,80,55,30.39,30.28,4,0,6,0.00
2013-8-26,82.3,69.3,57.3,66.0,61.0,56.0,97,77,47,30.32,30.09,3,0,4,0.00
2013-8-27,85.9,75.1,64.2,72.0,68.0,63.0,94,79,60,30.10,29.95,3,0,6,0.00
2013-8-28,83.0,75.8,69.5,76.0,71.5,68.0,94,86,75,29.98,29.84,3,0,7,0.00
2013-8-29,83.9,76.4,71.3,74.0,71.2,69.0,92,84,70,30.00,29.83,3,0,5,0.00
2013-8-30,82.7,74.5,68.3,71.0,69.0,67.0,97,84,65,30.05,29.91,4,0,7,0.00
2013-8-31,85.6,74.7,68.9,75.0,69.7,66.0,97,85,66,29.93,29.81,5,1,11,0.09
2013-9-1,84.2,73.2,66.5,75.0,69.8,66.0,99,89,70,29.87,29.77,5,0,7,0.00
2013-9-2,87.2,76.5,67.7,73.0,69.5,67.0,97,80,52,29.87,29.77,3,0,5,0.00
2013-9-3,87.1,76.8,69.1,72.0,68.5,63.0,95,77,52,29.94,29.77,3,0,5,0.00
2013-9-4,81.4,70.7,60.9,65.0,61.7,58.0,91,75,51,30.09,29.95,4,0,7,0.00
2013-9-5,85.0,71.9,60.6,65.0,61.2,58.0,92,72,45,30.11,30.02,2,0,6,0.00
2013-9-6,75.2,68.0,61.7,62.0,58.1,54.0,89,72,54,30.20,30.10,3,0,7,0.00
2013-9-7,78.9,67.9,58.0,66.0,61.6,55.0,93,81,62,30.13,29.96,4,0,9,0.00
2013-9-8,83.9,73.2,62.9,71.0,65.5,60.0,93,78,55,29.98,29.90,3,0,5,0.00
2013-9-9,79.8,72.7,67.2,71.0,68.4,66.0,96,86,71,30.14,29.98,3,0,6,0.00
2013-9-10,86.1,75.5,65.9,73.0,69.1,65.0,98,82,61,30.21,30.12,3,0,8,0.00
2013-9-11,86.4,75.9,68.3,74.0,70.6,67.0,96,84,62,30.17,30.04,3,0,6,0.00
2013-9-12,85.9,75.5,68.2,73.0,69.6,67.0,96,83,63,30.04,29.79,4,0,7,0.00
2013-9-13,78.4,70.9,59.7,66.0,57.4,49.0,90,65,39,29.92,29.75,6,1,9,0.00
2013-9-14,72.8,61.5,51.5,55.0,50.6,48.0,91,69,45,30.14,29.92,3,0,6,0.00
2013-9-15,76.0,63.4,50.5,61.0,55.3,48.0,93,76,55,30.25,30.11,4,0,8,0.00
2013-9-16,76.2,68.4,60.2,65.0,61.3,57.0,94,79,64,30.21,30.07,2,0,5,0.00
2013-9-17,70.5,61.3,52.6,58.0,53.5,51.0,94,77,51,30.36,30.21,3,0,6,0.00
2013-9-18,66.8,59.6,53.2,58.0,52.8,49.0,89,79,64,30.32,30.19,3,0,5,0.00
2013-9-19,71.6,65.2,59.7,64.0,60.1,56.0,93,84,70,30.19,30.07,2,0,7,0.00
2013-9-20,66.7,65.0,63.5,66.0,64.3,63.0,98,97,91,30.07,29.95,1,0,4,0.55
2013-9-21,69.3,64.9,60.2,69.0,64.6,60.0,99,98,96,29.95,29.70,4,0,6,0.74
2013-9-22,73.0,62.8,54.4,60.0,56.9,54.0,99,83,53,29.91,29.74,3,0,5,0.01
2013-9-23,68.5,60.6,55.3,58.0,53.3,48.0,93,78,61,30.08,29.92,3,0,7,0.00
2013-9-24,73.8,62.7,54.1,62.0,56.9,52.0,95,82,64,30.10,29.94,2,0,5,0.00
2013-9-25,65.0,60.7,54.3,63.0,59.0,53.0,98,94,88,29.95,29.88,1,0,3,0.02
2013-9-26,73.0,63.5,57.2,61.0,56.6,50.0,99,81,46,30.05,29.90,2,0,7,0.01
2013-9-27,72.5,61.7,52.7,58.0,54.5,51.0,95,79,55,30.20,30.06,4,0,6,0.00
2013-9-28,66.9,59.6,54.6,56.0,54.0,51.0,94,82,63,30.28,30.20,4,0,7,0.00
2013-9-29,69.1,59.1,51.3,56.0,52.9,50.0,95,81,58,30.20,30.06,4,0,6,0.00
2013-9-30,74.2,61.5,52.1,59.0,54.1,51.0,95,78,50,30.10,29.99,4,0,5,0.00
2013-10-1,79.7,66.0,55.1,63.0,58.4,54.0,96,78,47,30.11,30.02,2,0,4,0.00
2013-10-2,80.8,67.9,57.2,64.0,59.6,55.0,93,76,49,30.14,30.04,3,0,5,0.00
2013-10-3,81.5,69.2,58.9,65.0,61.6,57.0,95,79,52,30.12,30.04,3,0,6,0.00
2013-10-4,84.1,70.9,60.6,67.0,63.3,59.0,96,79,50,30.12,30.04,4,0,7,0.00
2013-10-5,85.9,73.0,63.7,68.0,64.4,61.0,94,76,49,30.10,30.01,3,0,5,0.00
2013-10-6,81.3,71.0,62.9,66.0,64.1,62.0,96,80,57,30.03,29.89,7,1,9,0.00
2013-10-7,69.9,65.6,55.4,69.0,62.0,50.0,98,88,73,30.04,29.77,5,1,8,1.02
2013-10-8,64.5,57.0,50.4,50.0,47.0,45.0,86,71,52,30.25,30.03,4,0,9,0.00
2013-10-9,65.4,56.2,50.2,53.0,48.7,46.0,90,76,58,30.26,30.16,5,0,10,0.00
2013-10-10,66.9,58.2,50.9,60.0,54.7,48.0,97,88,77,30.16,29.97,3,0,5,0.30
2013-10-11,71.1,64.7,60.0,63.0,58.9,56.0,87,81,70,29.97,29.91,2,0,5,0.00
2013-10-12,66.0,62.8,60.6,63.0,60.0,57.0,96,90,82,30.11,29.96,1,0,5,0.00
2013-10-13,63.4,61.2,58.9,62.0,59.6,57.0,97,94,89,30.25,30.10,3,0,7,0.00
2013-10-14,65.9,59.1,53.9,60.0,57.1,53.0,98,93,79,30.28,30.19,3,0,5,0.05
2013-10-15,68.5,59.3,51.9,57.0,54.4,51.0,98,85,59,30.23,30.08,3,0,5,0.00
2013-10-16,70.7,63.3,57.9,61.0,57.5,55.0,92,82,66,30.10,29.93,3,0,5,0.00
2013-10-17,65.0,62.6,59.3,63.0,60.6,58.0,96,93,86,29.95,29.81,3,0,7,0.02
2013-10-18,66.6,56.9,47.2,58.0,49.2,44.0,92,76,55,30.06,29.89,2,0,4,0.00
2013-10-19,58.8,54.8,51.2,57.0,53.1,50.0,97,94,90,29.99,29.82,2,0,4,0.00
2013-10-20,61.5,51.1,42.7,50.0,40.2,35.0,94,68,41,30.12,29.93,3,0,7,0.00
2013-10-21,66.1,51.8,39.0,50.0,44.7,38.0,96,79,56,30.18,29.99,5,1,8,0.00
2013-10-22,68.2,58.9,52.4,54.0,51.0,48.0,91,76,49,29.99,29.79,8,0,8,0.00
2013-10-23,61.1,52.8,41.3,51.0,42.4,33.0,95,70,37,30.01,29.69,8,1,12,0.00
2013-10-24,52.6,43.2,35.2,34.0,32.2,30.0,86,67,43,30.20,30.02,4,1,11,0.00
2013-10-25,51.9,41.3,34.0,34.0,29.9,26.0,89,66,40,30.38,30.20,4,0,8,0.00
2013-10-26,55.9,42.9,29.7,35.0,30.0,27.0,90,64,40,30.37,30.07,5,1,11,0.00
2013-10-27,66.1,52.9,41.5,42.0,38.5,34.0,82,60,38,30.13,30.03,4,1,7,0.00
2013-10-28,64.7,53.9,43.6,54.0,47.8,40.0,91,81,60,30.26,30.11,1,0,5,0.00
2013-10-29,67.5,59.5,54.0,54.0,52.7,51.0,95,79,58,30.35,30.25,4,0,5,0.00
2013-10-30,72.8,61.6,54.1,59.0,55.3,52.0,95,80,62,30.28,30.14,3,0,7,0.01
2013-10-31,67.9,63.7,59.0,61.0,56.9,56.0,89,79,68,30.16,29.82,11,1,13,0.00
2013-11-1,70.3,65.3,56.4,63.0,60.6,55.0,96,85,75,29.82,29.61,8,2,17,0.07
2013-11-2,66.2,56.2,46.9,55.0,42.5,34.0,98,66,31,29.96,29.67,5,1,10,0.01
2013-11-3,59.5,50.0,42.4,38.0,35.0,32.0,75,58,36,30.39,29.96,4,0,9,0.00
2013-11-4,51.0,43.2,36.5,34.0,29.3,26.0,82,59,42,30.59,30.39,3,0,8,0.00
2013-11-5,55.1,45.6,36.5,43.0,35.2,27.0,82,68,58,30.61,30.47,3,0,5,0.00
2013-11-6,69.0,56.2,47.7,52.0,48.1,43.0,87,76,53,30.47,30.11,4,0,9,0.00
2013-11-7,62.7,54.7,43.6,55.0,44.6,29.0,91,70,47,30.14,29.95,4,1,11,0.00
2013-11-8,53.0,42.8,34.5,30.0,26.1,23.0,78,54,31,30.35,30.14,5,1,11,0.00
2013-11-9,52.4,42.7,29.9,30.0,27.5,25.0,87,57,37,30.39,30.17,6,1,8,0.00
2013-11-10,68.3,54.1,43.9,38.0,28.7,20.0,58,40,17,30.27,30.07,9,2,13,0.00
2013-11-11,59.0,46.5,34.4,28.0,26.2,24.0,71,48,27,30.35,30.12,5,1,7,0.00
2013-11-12,55.0,44.1,29.4,37.0,24.9,13.0,55,47,41,30.46,30.03,4,1,13,0.00
2013-11-13,46.8,34.6,27.2,18.0,15.6,12.0,67,48,26,30.57,30.44,5,1,9,0.00
2013-11-14,60.0,42.4,27.0,20.0,17.4,13.0,68,40,18,30.48,30.32,4,1,7,0.00
2013-11-15,58.3,47.7,35.9,46.0,30.6,20.0,94,54,33,30.33,30.21,5,1,7,0.05
2013-11-16,54.8,51.2,47.7,53.0,50.3,46.0,98,96,93,30.29,30.22,1,0,3,0.02
2013-11-17,60.2,56.1,53.2,60.0,55.6,52.0,99,98,94,30.23,29.84,3,0,6,0.08
2013-11-18,67.1,59.0,49.6,60.0,42.7,26.0,99,60,27,29.99,29.80,9,2,14,0.08
2013-11-19,51.5,45.1,37.4,29.0,26.0,23.0,66,48,35,30.34,29.99,8,1,10,0.00
2013-11-20,49.3,40.9,33.8,32.0,25.8,24.0,70,56,41,30.51,30.34,7,1,10,0.00
2013-11-21,50.4,44.7,39.6,42.0,36.9,29.0,79,74,67,30.54,30.42,2,0,4,0.00
2013-11-22,61.1,55.3,47.2,56.0,50.6,41.0,90,84,78,30.42,30.07,7,2,15,0.00
2013-11-23,58.1,50.1,35.8,55.0,35.0,15.0,90,58,33,30.23,30.07,10,2,13,0.00
2013-11-24,35.8,29.2,24.2,15.0,6.1,0.0,49,38,23,30.57,30.23,9,2,13,0.00
2013-11-25,36.9,29.4,20.1,13.0,9.1,6.0,68,44,30,30.59,30.39,4,1,6,0.00
2013-11-26,42.9,35.3,31.4,42.0,32.6,15.0,98,90,45,30.39,29.63,5,1,7,2.53
2013-11-27,43.6,35.4,26.3,43.0,27.5,12.0,98,74,53,30.19,29.54,10,3,19,0.18
2013-11-28,42.2,31.5,23.1,18.0,16.2,12.0,73,55,36,30.49,30.18,5,1,7,0.00
2013-11-29,46.4,36.1,25.6,24.0,21.1,17.0,83,56,39,30.67,30.48,6,1,7,0.00
2013-11-30,43.3,33.2,24.5,23.0,21.5,20.0,84,64,40,30.70,30.40,4,0,6,0.00
2013-12-1,56.4,38.3,23.3,30.0,26.0,20.0,88,64,37,30.40,30.04,4,0,5,0.00
2013-12-2,54.5,43.5,30.2,38.0,33.3,27.0,87,69,51,30.04,29.85,3,0,5,0.00
2013-12-3,54.9,47.0,37.8,46.0,40.8,35.0,89,79,66,29.99,29.87,2,0,4,0.00
2013-12-4,61.4,52.9,47.6,55.0,50.6,46.0,97,92,76,30.08,29.98,4,0,7,0.00
2013-12-5,63.8,60.0,55.6,62.0,59.5,55.0,99,98,93,30.09,29.98,6,1,10,0.01
2013-12-6,73.7,67.7,58.1,65.0,62.7,56.0,98,84,67,30.01,29.89,9,2,16,0.15
2013-12-7,58.0,45.7,38.6,57.0,40.5,33.0,96,82,64,30.48,29.98,4,1,9,0.14
2013-12-8,38.4,32.1,29.5,32.0,29.5,28.0,95,90,76,30.49,30.31,5,1,7,0.35
2013-12-9,41.6,35.6,30.8,40.0,34.7,30.0,98,96,94,30.30,30.08,2,0,4,0.38
2013-12-10,45.6,38.3,30.2,41.0,32.2,19.0,98,80,53,30.31,29.97,8,1,16,0.30
2013-12-11,48.9,36.0,26.6,23.0,20.8,18.0,77,56,34,30.45,30.30,6,1,7,0.00
2013-12-12,41.2,34.1,28.9,21.0,14.1,5.0,66,46,24,30.43,30.31,6,1,12,0.00
2013-12-13,49.4,37.3,26.8,22.0,16.9,9.0,62,45,29,30.39,30.27,5,1,9,0.00
2013-12-14,39.8,36.0,34.1,34.0,30.1,21.0,97,81,47,30.30,29.80,3,0,6,0.46
2013-12-15,45.2,38.2,31.5,37.0,31.1,26.0,98,77,54,30.07,29.73,9,2,15,0.00
2013-12-16,51.2,38.7,30.7,33.0,29.2,26.0,84,70,47,30.17,30.05,2,0,6,0.00
2013-12-17,59.1,44.3,33.1,40.0,33.5,28.0,89,69,41,30.12,29.88,8,1,14,0.00
2013-12-18,46.7,38.7,31.3,27.0,18.5,13.0,63,46,26,30.28,30.04,8,2,13,0.00
2013-12-19,61.1,46.2,32.0,26.0,21.5,16.0,57,39,24,30.29,30.19,7,1,10,0.00
2013-12-20,59.8,52.2,46.0,47.0,35.6,26.0,80,54,41,30.20,30.09,6,2,11,0.00
2013-12-21,65.8,58.4,49.7,62.0,53.5,47.0,91,84,75,30.11,29.95,6,1,12,0.00
2013-12-22,69.9,63.2,58.5,65.0,60.9,58.0,98,92,83,30.04,29.93,11,2,16,0.85
2013-12-23,61.8,53.7,37.3,61.0,50.1,29.0,99,87,71,30.18,29.94,6,2,15,0.68
2013-12-24,40.9,33.3,24.8,29.0,20.7,10.0,83,61,39,30.50,30.18,7,2,14,0.00
2013-12-25,36.9,27.1,18.6,13.0,10.9,8.0,76,52,33,30.58,30.41,4,1,7,0.00
2013-12-26,50.8,34.8,24.8,25.0,18.3,11.0,70,52,32,30.40,30.27,5,1,10,0.00
2013-12-27,51.2,38.5,27.0,21.0,19.0,16.0,76,48,27,30.48,30.38,4,1,8,0.00
2013-12-28,56.2,41.3,29.3,38.0,25.0,21.0,92,56,28,30.41,30.19,6,1,10,0.12
2013-12-29,56.9,44.7,39.5,49.0,40.8,38.0,98,87,62,30.18,29.71,10,2,14,0.68
2013-12-30,47.0,42.2,37.1,39.0,34.3,30.0,84,74,65,30.15,29.92,4,1,10,0.00
2013-12-31,48.5,38.6,31.9,31.0,23.3,17.0,85,57,29,30.37,30.13,11,2,18,0.00
2014-1-1,47.0,36.6,27.5,28.0,24.2,18.0,82,62,45,30.40,30.15,3,0,6,0.00
2014-1-2,41.3,37.7,33.7,38.0,32.3,23.0,96,81,65,30.14,29.64,8,1,15,0.25